Location: Dunedin
(45.8670°S, 170.5000°E)
Time: 22:17:40
(UTC+12:00)

Daily predictions for brighter satellites

Satellite Brightness Start Highest point End
(mag) Time Altitude Azimuth Time Altitude Azimuth Time Altitude Azimuth
Lacrosse 5 3.0 17:46:02 10° SW 17:50:31 29° SSE 17:54:59 10° ESE
Cosmos 2360 Rocket 2.9 17:46:34 10° NW 17:52:06 55° WSW 17:57:42 10° SSE
Cosmos 2219 Rocket 2.3 17:46:51 10° NNW 17:52:24 64° ENE 17:58:00 10° SSE
USA 276 2.4 17:49:10 10° WSW 17:52:25 71° NNW 17:55:37 10° ENE
Cosmos 1953 Rocket 3.7 17:50:03 10° N 17:54:28 62° E 17:59:00 10° SSE
Cosmos 1825 Rocket 3.7 17:50:01 10° N 17:54:29 87° WSW 17:58:59 10° S
Nadezhda 4 Rocket 4.0 17:49:03 10° N 17:55:07 66° E 18:01:19 10° SSE
Cosmos 1092 Rocket 4.4 17:50:21 10° NNE 17:56:06 41° E 18:01:58 10° SSE
SMAP 4.4 17:57:17 10° SE 18:00:47 20° E 18:04:14 10° NE
Cosmos 2058 3.6 17:57:25 10° NNE 18:01:09 33° E 18:04:57 10° SSE
Cosmos-2242 3.9 17:57:36 10° SSW 18:01:59 56° W 18:06:15 10° N
Cosmos 1486 Rocket 4.2 17:56:50 10° SSW 18:02:10 80° WNW 18:07:28 10° NNE
Atlas Centaur 2 4.3 17:58:55 10° NNW 18:02:20 17° N 18:06:14 10° NE
COSMO-SKYMED 1 3.2 18:01:40 10° N 18:06:01 64° W 18:10:25 10° SSW
CENTAUR R/B 3.5 17:59:17 10° WNW 18:07:02 53° SW 18:13:37 10° SSE
CSL-04 DEB 4.4 18:03:13 10° NNE 18:07:05 54° ESE 18:11:01 10° S
Cosmos 1992 Rocket 4.0 18:02:02 10° NNW 18:07:18 82° ENE 18:12:38 10° SSE
H-2A R/B 3.1 18:03:58 10° N 18:08:01 48° W 18:12:05 10° SSW
CZ-2C R/B 2.9 18:02:36 10° NE 18:08:06 55° ESE 18:13:37 10° S
ADEOS 3.9 18:03:23 10° S 18:08:41 71° WSW 18:13:55 10° NNW
USA 234 3.5 18:03:07 10° ESE 18:09:39 59° NE 18:16:08 10° NW
Cosmos 1825 2.4 18:07:26 10° NNE 18:11:06 48° E 18:14:50 10° SSE
Cosmos 1842 Rocket 3.9 18:08:50 10° S 18:13:09 45° ESE 18:17:27 10° NNE
Cosmos 1408 2.7 18:10:49 10° N 18:14:34 86° W 18:18:22 10° S
Cosmos 1980 4.4 18:11:37 10° NNE 18:16:40 34° ENE 18:21:44 10° SE
Cosmos 405 Rocket 3.3 18:13:23 10° NNE 18:16:49 35° E 18:20:22 10° SSE
Envisat 3.0 18:13:04 10° SSE 18:18:16 82° ENE 18:23:24 10° NNW
IRIDIUM 106 4.3 18:19:25 10° S 18:24:44 71° E 18:29:59 10° N
Cosmos 1437 Rocket 3.3 18:22:47 10° S 18:26:17 32° ESE 18:29:44 10° NE
Cosmos 1356 3.6 18:23:05 10° N 18:26:24 48° E 18:29:48 10° SSE
Cosmos 2221 2.4 18:24:27 10° S 18:28:47 65° E 18:33:03 10° NNE
SL-16 R/B 3.8 18:26:08 10° NE 18:28:39 14° E 18:28:39 14° E
Cosmos 2322 4.3 18:24:01 10° NW 18:29:39 58° WSW 18:35:23 10° SSE
CZ-4B R/B 2.1 18:28:42 10° N 18:31:42 52° W 18:34:47 10° SSW
Cosmos 1606 3.2 18:29:46 10° S 18:33:23 36° ESE 18:36:55 10° NE
SL-8 R/B 4.2 18:31:07 10° NW 18:35:46 46° NNE 18:38:38 21° E
Cosmos 1689 Rocket 2.3 18:34:11 10° NE 18:36:55 41° ESE 18:39:43 10° S
ATLAS 3B R/B 2.9 18:31:30 10° NNW 18:38:55 65° ENE 18:45:30 13° SE
Meteor 2-15 Rocket 4.4 18:34:29 10° S 18:40:40 69° E 18:46:45 10° NNE
Cosmos 2333 Rocket 3.1 18:39:19 10° NW 18:44:47 47° WSW 18:50:19 10° SSE
PSLV R/B 4.1 18:41:00 10° N 18:45:11 79° WNW 18:49:23 10° SSW
YAOGAN 6 3.9 18:42:53 10° S 18:46:16 39° WSW 18:49:36 10° NW
Cosmos 1900 4.4 18:42:24 10° SSW 18:47:28 59° SE 18:52:13 12° NE
Cosmos 1461 3.4 18:44:26 10° SSW 18:48:31 40° SE 18:50:14 28° E
Cosmos 1553 Rocket 4.0 18:44:48 10° S 18:50:52 54° ESE 18:56:49 10° NNE
Cosmos 1076 Rocket 3.5 18:46:51 10° N 18:51:05 60° E 18:55:24 10° SSE
Cosmos 1777 Rocket 3.9 18:46:37 10° SSW 18:51:58 68° ESE 18:57:12 10° NNE
Genesis I 3.1 18:53:26 10° NNW 18:57:24 81° NE 18:59:04 33° SE
CZ-4B R/B 4.4 18:53:11 10° S 18:57:27 40° WSW 19:01:31 10° NW
PSLV R/B 3.6 18:54:05 10° SSE 18:57:58 87° ENE 19:01:44 10° NNW
deb Chang Zheng 4 3.9 18:53:45 10° S 18:58:09 68° WSW 19:02:28 10° NNW
Cosmos 2237 Rocket 2.2 18:53:12 10° NNW 18:58:48 67° ENE 19:03:17 17° SSE
Cosmos 2098 Rocket 3.9 18:57:11 10° NNW 19:00:14 35° WSW 19:03:03 10° S
CZ-2C R/B 3.2 18:59:03 24° SE 19:01:30 41° E 19:06:00 10° NNE
CORIOLIS 4.2 18:57:15 10° SSE 19:02:44 62° ENE 19:08:09 10° N
Cosmos 2151 3.2 19:00:55 10° NNE 19:04:58 46° E 19:05:43 41° ESE
SJ 16-02 1.7 19:02:05 10° S 19:06:20 41° ESE 19:06:30 41° ESE
Okean O Rocket 2.0 19:06:03 39° ESE 19:06:48 43° E 19:11:05 10° N
NOAA 12 4.1 19:01:49 10° SSE 19:07:15 89° WSW 19:12:35 10° NNW
ERS-2 2.0 19:03:49 10° NNE 19:07:29 79° ESE 19:11:15 10° SSW
BREEZE-M DEB 2.2 19:06:54 10° WNW 19:09:24 59° WNW 19:09:24 59° WNW
Cosmos 1607 4.4 19:04:47 10° SSW 19:10:30 38° SE 19:11:53 34° ESE
ATLAS CENTAUR R/B 2.8 19:07:47 10° SSW 19:10:37 24° SSE 19:10:37 24° SSE
Cosmos 1633 2.3 19:10:39 10° N 19:14:14 72° E 19:14:15 72° E
Cosmos 1943 Rocket 3.0 19:11:09 10° S 19:15:54 31° SE 19:15:54 31° SE
Radarsat 4.5 19:12:26 10° SSE 19:17:45 83° ENE 19:22:59 10° NNW
Cosmos 2278 Rocket 2.9 19:15:56 10° SSW 19:21:32 56° WNW 19:27:05 10° N
Cosmos 1655 Rocket 4.1 19:15:49 10° NNE 19:21:57 54° E 19:28:12 10° SSE
SAR-Lupe-4 4.3 19:19:45 10° N 19:23:18 55° W 19:26:55 10° SSW
Cosmos 1939 Rocket 2.8 19:23:03 33° SSE 19:24:56 90° NE 19:29:07 10° NNW
NOSS 0 Rocket 4.3 19:20:34 10° NW 19:26:46 64° WSW 19:31:59 15° SSE
Cosmos 2292 Rocket 3.7 19:23:12 10° N 19:27:24 88° W 19:33:09 10° S
Cosmos 2369 Rocket 3.7 19:22:59 10° S 19:25:49 20° SSE 19:25:49 20° SSE
Meteor 2-3 Rocket 3.7 19:22:07 10° N 19:27:36 56° E 19:29:42 36° SE
CZ-4B R/B 3.0 19:24:12 15° SSE 19:28:43 75° ENE 19:34:02 10° N
COSMOS 2428 4.3 19:25:45 10° WNW 19:30:50 32° SW 19:35:57 10° S
PAYLOAD B 4.4 19:25:44 10° SSE 19:31:24 77° WSW 19:36:58 10° NNW
H-2A R/B 3.6 19:33:35 29° N 19:33:35 29° N 19:35:32 10° N
Lacrosse 5 1.7 19:29:01 10° SW 19:34:12 77° SE 19:34:45 68° E
Cosmos 1242 Rocket 4.2 19:31:53 10° SSW 19:33:40 27° SSW 19:33:40 27° SSW
Cosmos 2219 Rocket 4.1 19:32:16 10° WNW 19:36:50 25° SW 19:41:25 10° S
SMAP 3.9 19:33:49 10° S 19:38:24 49° WSW 19:42:55 10° NW
Meteor 2-21 Rocket 4.4 19:34:20 10° N 19:40:31 67° E 19:46:46 10° SSE
Atlas Centaur 2 4.4 19:46:30 10° NW 19:50:27 17° N 19:52:48 15° NNE
USA 234 3.7 19:50:01 35° SSE 19:52:38 55° SSW 19:59:01 10° WNW
Cosmos 883 Rocket 4.3 19:49:52 10° S 19:56:08 74° E 19:56:26 73° ENE
Cosmos 1867 3.8 19:52:37 10° SSW 19:57:04 57° S 19:57:04 57° S
CENTAUR R/B 4.4 19:53:54 10° WSW 19:59:08 21° SSW 20:02:05 16° SSE
SL-16 R/B 2.7 20:06:26 10° NNW 20:10:35 51° NNW 20:10:35 51° NNW
BREEZE-M DEB (TANK) 4.0 20:07:48 10° W 20:14:26 60° WSW 20:14:26 60° WSW
Cosmos 2266 Rocket 4.1 20:09:27 10° NNW 20:15:31 72° W 20:21:44 10° S
Cosmos 2297 4.2 20:17:33 10° SSW 20:22:23 59° WSW 20:22:23 59° WSW
ATLAS CENTAUR R/B 4.2 20:10:19 10° WNW 20:27:07 55° SSW 20:29:37 42° SSE
ATLAS 3B R/B 3.9 20:23:08 10° WNW 20:30:05 40° SW 20:32:46 30° S
Cosmos 2315 Rocket 4.5 20:25:28 10° SSW 20:30:20 54° SSW 20:30:20 54° SSW
Okean O Rocket 4.0 20:43:31 22° WSW 20:43:31 22° WSW 20:46:23 10° WNW
Cosmos 2237 Rocket 4.2 20:38:49 10° W 20:43:24 24° SW 20:45:08 21° SSW
SJ 16-02 3.9 20:41:16 10° SW 20:43:33 19° WSW 20:43:33 19° WSW
ATLAS CENTAUR R/B 4.5 20:46:30 10° SW 20:46:46 12° SW 20:46:46 12° SW
Cosmos 1943 Rocket 3.9 20:54:42 10° SW 20:57:28 28° SW 20:57:28 28° SW
